Tracking 31027 objects as of 19-Jul-2025
HD Live streaming from Space Station
objects crossing your sky now

NOAA 17 DEB

Track NOAA 17 DEB now!
10-day predictions


NORAD ID: 48753
Int'l Code: 2002-032CP
Perigee: 710.7 km
Apogee: 747.7 km
Inclination: 98.7 °
Period: 99.2 minutes
Semi major axis: 7100 km
RCS: Unknown
Launch date: June 24, 2002
Source: United States (US)
Launch site: AIR FORCE WESTERN TEST RANGE (AFWTR)

Note: This is SATELLITE DEBRIS
Your satellite tracking list
KORSAT 7
Track 1 satellite(s)




NASA's NSSDC Master Catalog

Two Line Element Set (TLE):
1 48753U 02032CN  25199.39261592  .00006473  00000-0  16364-2 0  9999
2 48753  98.7250 170.4624 0026055 116.1235 244.2643 14.51113847224975
Source of the keplerian elements: AFSPC